Regional Weather Roundup
Issued by NWS Newport/Morehead, NC

Home | Current Version | Previous Version | Text Only | Print | Product List | Glossary On
Versions: 1 2 3 4 5 6 7 8 9 10 11 12 13 14 15 16 17 18 19 20 21 22 23 24 25 26 27 28 29 30 31 32 33 34 35 36 37 38 39 40 41 42 43 44 45 46 47 48 49 50
000
ASUS42 KMHX 251824
RWRMHX
WEATHER ROUNDUP FOR EASTERN NORTH CAROLINA
NATIONAL WEATHER SERVICE NEWPORT/MOREHEAD CITY NC
200 PM EDT SAT APR 25 2015

NOTE: "FAIR" INDICATES FEW OR NO CLOUDS BELOW 12,000 FEET
WITH NO SIGNIFICANT WEATHER AND/OR OBSTRUCTIONS TO VISIBILITY

NCZ015>017-031-032-045>047-102-103-251900-
NORTH COAST

CITY           SKY/WX    TMP DP  RH WIND       PRES   REMARKS
EDENTON        CLOUDY    60  50  68 SE7       29.84F
ELIZABETH CITY CLOUDY    57  38  48 E10       29.86F
KITTY HAWK     CLOUDY    56  42  60 E9        29.86F
MANTEO         CLOUDY    57  36  45 E10       29.86F

$$

NCZ045>047-081-094-103-104-251900-
CENTRAL COAST

CITY           SKY/WX    TMP DP  RH WIND       PRES   REMARKS
FRISCO         CLOUDY    60  50  69 NW5       29.88F
SWANQUARTER      N/A     64 N/A N/A S7        29.79F

$$

NCZ095-097-098-100-101-251900-
SOUTHERN COAST

CITY           SKY/WX    TMP DP  RH WIND       PRES   REMARKS
BEAUFORT       LGT RAIN  62  53  72 W14       29.88F
CEDAR ISLAND     N/A     63 N/A N/A E5        29.88F
JACKSONVILLE   CLOUDY    58  53  84 CALM      29.86F
PINEY ISLAND   CLOUDY   N/A N/A N/A SW9       29.86F
WILMINGTON     LGT RAIN  62  56  80 CALM      29.84F


$$

NCZ011>013-027>030-043-044-078>080-089-090>093-098-251900-
COASTAL PLAIN

CITY           SKY/WX    TMP DP  RH WIND       PRES   REMARKS
AHOSKIE        RAIN      55  47  76 NE3       29.87R
CLINTON        LGT RAIN  58  56  94 CALM      29.84F
ELIZABETHTOWN  CLOUDY    61  59  92 SE6       29.80F
GOLDSBORO      CLOUDY    57  57 100 S5        29.82F
GREENVILLE     DRIZZLE   59  54  82 SW6       29.85F
HAVELOCK       LGT RAIN  59  55  87 SW7       29.86F
KENANSVILLE    CLOUDY    56  55  94 S3        29.85F
KINSTON        CLOUDY    57  55  94 S13       29.84F
NEW BERN       LGT RAIN  61  53  75 SW13G21   29.88F
RICHLANDS      CLOUDY    57  54  88 S7        29.85F
ROCKY MOUNT    LGT RAIN  57  54  89 CALM      29.83S FOG
WASHINGTON     LGT RAIN  59  52  77 SW5       29.83F
WHITEVILLE     CLOUDY    61  56  84 SE5       29.82F

$$

AMZ130-135-150-152-154-156-158-170-250-252-270-ANZ085-086-088-633-658-670-251900-
MARINE OBSERVATIONS

STATION/POSITION TIME  TEMP    WIND        PRES    WAVE   SWELL
                       AIR SEA DIR/SP/G            HT/PER HT/PER
                 (UTC) (F)     (DEG/KT/KT) (MB)    (FT/S) (FT/S)
CHESAPEAKE LIGHT 1800   49      80/ 10/ 11 1012.7
64 E VA BEACH    1750   55 59   60/  6/  8 1012.0    2/12   2/12
DUCK             1800   53 55   80/ 13/ 14 1010.1
2 E DUCK         1711      55                N/A     2/12   2/12
10 NE DUCK       NOT AVBL
OREGON INLET     1800   57 58   60/  7/ 11 1011.3
HATTERAS CG      1800   63 65  330/  2/  2 1010.8
DIAMOND BUOY     1750   63 72  310/ 10/ 12 1011.7    3/10   3/10
CAPE LOOKOUT     1800   62     240/ 13/ 17 1011.7
BEAUFORT LAB     1800   61 63  250/  8/ 12 1010.9
27 SE WRIGHTSVLE 1800   64 71  240/ 12/ 14   N/A
5 SE WRIGHTSVLE  1708   63 65  340/  4/  8 1012.1
225 S CAPE HAT   1750   67 71  210/ 14/ 19 1014.9    5/ 9   5/ 9
41 SE CHARLESTON 1750   69 72  170/ 31/ 39 1006.5    3/ 4   2/10

$$



USA.gov is the U.S. government's official web portal to all federal, state and local government web resources and services.